When you browse on this site, cookies collect data to enhance your experience and personalize the content and advertising you see.
Visit our Privacy Policy to learn more. By continuing to use the site, you agree to this use of cookies and data.

Stündliche Wetter Bolshie Elbuzdovskie

Heute, 21 September, Montag

Zeit Temperatur Niederschläge Wind Luftdruck Luftfeuchtigkeit
00:00 +11°C° 0 mm 3 m/S 761 mmHg 50%
01:00 +11°C° 0 mm 3 m/S 762 mmHg 52%
02:00 +10°C° 0 mm 3 m/S 762 mmHg 55%
03:00 +10°C° 0 mm 3 m/S 762 mmHg 57%
04:00 +9°C° 0 mm 3 m/S 762 mmHg 59%
05:00 +9°C° 0 mm 3 m/S 763 mmHg 61%
06:00 +8°C° 0 mm 3 m/S 763 mmHg 64%
07:00 +11°C° 0 mm 3 m/S 763 mmHg 55%
08:00 +14°C° 0 mm 3 m/S 763 mmHg 47%
09:00 +17°C° 0 mm 4 m/S 763 mmHg 39%
10:00 +19°C° 0 mm 4 m/S 763 mmHg 33%
11:00 +20°C° 0 mm 3 m/S 763 mmHg 28%
12:00 +22°C° 0 mm 3 m/S 762 mmHg 22%
13:00 +24°C° 0 mm 3 m/S 762 mmHg 20%
14:00 +24°C° 0 mm 3 m/S 762 mmHg 18%
15:00 +25°C° 0 mm 3 m/S 761 mmHg 16%
16:00 +24°C° 0 mm 3 m/S 761 mmHg 18%
17:00 +21°C° 0 mm 3 m/S 761 mmHg 20%
18:00 +20°C° 0 mm 3 m/S 761 mmHg 21%
19:00 +18°C° 0 mm 3 m/S 761 mmHg 24%
20:00 +17°C° 0 mm 3 m/S 762 mmHg 26%
21:00 +14°C° 0 mm 3 m/S 762 mmHg 29%
22:00 +13°C° 0 mm 3 m/S 762 mmHg 30%
23:00 +13°C° 0 mm 3 m/S 762 mmHg 31%

Morgen, 22 September, Dienstag

Zeit Temperatur Niederschläge Wind Luftdruck Luftfeuchtigkeit
00:00 +12°C° 0 mm 3 m/S 762 mmHg 33%
01:00 +12°C° 0 mm 3 m/S 762 mmHg 34%
02:00 +11°C° 0 mm 3 m/S 762 mmHg 35%
03:00 +11°C° 0 mm 3 m/S 762 mmHg 36%
04:00 +10°C° 0 mm 3 m/S 762 mmHg 37%
05:00 +10°C° 0 mm 3 m/S 762 mmHg 39%
06:00 +10°C° 0 mm 3 m/S 762 mmHg 40%
07:00 +13°C° 0 mm 3 m/S 762 mmHg 35%
08:00 +16°C° 0 mm 3 m/S 763 mmHg 31%
09:00 +19°C° 0 mm 4 m/S 763 mmHg 27%
10:00 +21°C° 0 mm 4 m/S 763 mmHg 24%
11:00 +24°C° 0 mm 3 m/S 762 mmHg 21%
12:00 +26°C° 0 mm 3 m/S 762 mmHg 18%
13:00 +27°C° 0 mm 3 m/S 762 mmHg 17%
14:00 +27°C° 0 mm 3 m/S 762 mmHg 15%
15:00 +28°C° 0 mm 4 m/S 761 mmHg 14%
16:00 +27°C° 0 mm 3 m/S 761 mmHg 15%
17:00 +25°C° 0 mm 3 m/S 761 mmHg 17%
18:00 +22°C° 0 mm 3 m/S 761 mmHg 18%
19:00 +21°C° 0 mm 3 m/S 761 mmHg 20%
20:00 +19°C° 0 mm 3 m/S 761 mmHg 23%
21:00 +17°C° 0 mm 3 m/S 761 mmHg 25%
22:00 +17°C° 0 mm 3 m/S 761 mmHg 27%
23:00 +16°C° 0 mm 3 m/S 761 mmHg 30%

übermorgen, 23 September, Mittwoch

Zeit Temperatur Niederschläge Wind Luftdruck Luftfeuchtigkeit
00:00 +14°C° 0 mm 3 m/S 761 mmHg 32%
01:00 +14°C° 0 mm 3 m/S 761 mmHg 33%
02:00 +14°C° 0 mm 3 m/S 761 mmHg 33%
03:00 +13°C° 0 mm 3 m/S 761 mmHg 33%
04:00 +13°C° 0 mm 3 m/S 761 mmHg 36%
05:00 +13°C° 0 mm 3 m/S 761 mmHg 39%
06:00 +12°C° 0 mm 3 m/S 761 mmHg 42%
07:00 +16°C° 0 mm 3 m/S 761 mmHg 41%
08:00 +18°C° 0 mm 3 m/S 761 mmHg 40%
09:00 +21°C° 0 mm 3 m/S 761 mmHg 39%
10:00 +23°C° 0 mm 4 m/S 760 mmHg 33%
11:00 +26°C° 0 mm 5 m/S 760 mmHg 27%
12:00 +28°C° 0 mm 5 m/S 760 mmHg 22%
13:00 +29°C° 0 mm 5 m/S 759 mmHg 21%
14:00 +29°C° 0 mm 5 m/S 759 mmHg 21%
15:00 +30°C° 0 mm 5 m/S 758 mmHg 20%
16:00 +28°C° 0 mm 5 m/S 758 mmHg 23%
17:00 +26°C° 0 mm 4 m/S 758 mmHg 25%
18:00 +25°C° 0 mm 4 m/S 757 mmHg 28%
19:00 +23°C° 0 mm 4 m/S 758 mmHg 30%
20:00 +21°C° 0 mm 4 m/S 758 mmHg 33%
21:00 +20°C° 0 mm 4 m/S 758 mmHg 35%
22:00 +19°C° 0 mm 4 m/S 758 mmHg 38%
23:00 +19°C° 0 mm 4 m/S 758 mmHg 40%

24 September, Donnerstag

Zeit Temperatur Niederschläge Wind Luftdruck Luftfeuchtigkeit
00:00 +18°C° 0 mm 4 m/S 758 mmHg 43%
01:00 +17°C° 0 mm 3 m/S 758 mmHg 44%
02:00 +17°C° 0 mm 3 m/S 758 mmHg 45%
03:00 +16°C° 0 mm 3 m/S 758 mmHg 47%
04:00 +16°C° 0 mm 3 m/S 758 mmHg 48%
05:00 +14°C° 0 mm 4 m/S 758 mmHg 50%
06:00 +14°C° 0 mm 4 m/S 758 mmHg 51%
07:00 +17°C° 0 mm 4 m/S 758 mmHg 49%
08:00 +19°C° 0 mm 5 m/S 758 mmHg 47%
09:00 +21°C° 0 mm 5 m/S 758 mmHg 44%
10:00 +23°C° 0 mm 5 m/S 757 mmHg 41%
11:00 +26°C° 0 mm 6 m/S 757 mmHg 38%
12:00 +28°C° 0 mm 6 m/S 757 mmHg 35%
13:00 +29°C° 0 mm 6 m/S 757 mmHg 33%
14:00 +29°C° 0 mm 6 m/S 756 mmHg 31%
15:00 +30°C° 0 mm 6 m/S 756 mmHg 30%
16:00 +29°C° 0 mm 5 m/S 756 mmHg 32%
17:00 +27°C° 0 mm 5 m/S 756 mmHg 33%
18:00 +26°C° 0 mm 4 m/S 756 mmHg 35%
19:00 +25°C° 0 mm 4 m/S 756 mmHg 37%
20:00 +22°C° 0 mm 4 m/S 756 mmHg 38%
21:00 +21°C° 0 mm 4 m/S 756 mmHg 39%
22:00 +20°C° 0 mm 4 m/S 756 mmHg 40%
23:00 +20°C° 0 mm 4 m/S 756 mmHg 41%

25 September, Freitag

Zeit Temperatur Niederschläge Wind Luftdruck Luftfeuchtigkeit
00:00 +19°C° 0 mm 4 m/S 756 mmHg 41%
01:00 +19°C° 0 mm 4 m/S 756 mmHg 45%
02:00 +18°C° 0 mm 4 m/S 756 mmHg 48%
03:00 +18°C° 0 mm 4 m/S 756 mmHg 51%
04:00 +17°C° 0 mm 4 m/S 756 mmHg 54%
05:00 +17°C° 0 mm 4 m/S 757 mmHg 56%
06:00 +15°C° 0 mm 4 m/S 757 mmHg 59%
07:00 +18°C° 0 mm 4 m/S 757 mmHg 57%
08:00 +19°C° 0 mm 5 m/S 757 mmHg 55%
09:00 +21°C° 0 mm 5 m/S 757 mmHg 53%
10:00 +23°C° 0 mm 5 m/S 756 mmHg 48%
11:00 +27°C° 0 mm 5 m/S 756 mmHg 43%
12:00 +29°C° 0 mm 5 m/S 756 mmHg 38%
13:00 +30°C° 0 mm 5 m/S 756 mmHg 36%
14:00 +30°C° 0 mm 5 m/S 755 mmHg 34%
15:00 +32°C° 0 mm 5 m/S 755 mmHg 32%
16:00 +30°C° 0 mm 4 m/S 755 mmHg 34%
17:00 +28°C° 0 mm 4 m/S 755 mmHg 36%
18:00 +27°C° 0 mm 3 m/S 754 mmHg 38%
19:00 +26°C° 0 mm 3 m/S 754 mmHg 36%
20:00 +25°C° 0 mm 4 m/S 755 mmHg 33%
21:00 +23°C° 0 mm 4 m/S 755 mmHg 31%
22:00 +23°C° 0 mm 5 m/S 755 mmHg 31%
23:00 +22°C° 0 mm 5 m/S 755 mmHg 32%

26 September, Samstag

Zeit Temperatur Niederschläge Wind Luftdruck Luftfeuchtigkeit
00:00 +22°C° 0 mm 5 m/S 755 mmHg 33%
01:00 +21°C° 0 mm 5 m/S 755 mmHg 35%
02:00 +20°C° 0 mm 5 m/S 755 mmHg 38%
03:00 +19°C° 0 mm 5 m/S 755 mmHg 40%
04:00 +19°C° 0 mm 5 m/S 755 mmHg 45%
05:00 +17°C° 0 mm 5 m/S 756 mmHg 49%
06:00 +16°C° 0 mm 6 m/S 756 mmHg 53%
07:00 +19°C° 0 mm 6 m/S 756 mmHg 46%
08:00 +21°C° 0 mm 7 m/S 756 mmHg 39%
09:00 +23°C° 0 mm 7 m/S 756 mmHg 31%
10:00 +26°C° 0 mm 7 m/S 756 mmHg 28%
11:00 +28°C° 0 mm 8 m/S 756 mmHg 24%
12:00 +31°C° 0 mm 8 m/S 756 mmHg 20%
13:00 +32°C° 0 mm 8 m/S 756 mmHg 19%
14:00 +32°C° 0 mm 8 m/S 755 mmHg 18%
15:00 +33°C° 0 mm 8 m/S 755 mmHg 17%
16:00 +32°C° 0 mm 8 m/S 755 mmHg 20%
17:00 +29°C° 0 mm 7 m/S 755 mmHg 22%
18:00 +28°C° 0 mm 6 m/S 756 mmHg 25%
19:00 +27°C° 0 mm 6 m/S 756 mmHg 27%
20:00 +24°C° 0 mm 7 m/S 756 mmHg 30%
21:00 +23°C° 0 mm 7 m/S 757 mmHg 32%
22:00 +22°C° 0 mm 7 m/S 757 mmHg 35%
23:00 +21°C° 0 mm 7 m/S 757 mmHg 38%
Mehr zeigen